COSMOS 2251 DEB

Satellite information

Favourite Embed

Satellite Type and Status

DEBRISIN ORBIT

Key statistics

Satellite COSMOS 2251 DEB at a glance.

Uptime

11709

Days in orbit

Revolutions

≈ 14.7

Per day

Orbit

LEO

Low Earth Orbit

Inclination

74.0

Latest

Satellite identification and parameters

Extended collection of information and parameters for COSMOS 2251 DEB.

Object identification

Identified? True

Debris? True

Object name: COSMOS 2251 DEB

International designator: 1993-036BDT

Object number (NORAD): 36557

Object ID (CCSDS): 36557

Country: COMMONWEALTH OF INDEPENDENT STATES (CIS)

Current information (Y/N): Y

RCS size: SMALL

Orbital parameters

Period: 97.79 minutes

Inclination: 73.9824 deg

SMA: 7031.099 km

Apoapsis: 670.564 km

Periapsis: 635.365 km

RAAN: 78.7239 deg

Eccentricy: 0.0025031

Argument of periapsis: 257.4132 deg

Mean anomaly: 102.4241 deg

Mean motion: 14.72542739 rev/day

Mean motion (dot): 0.00010438 rev/day2

B* drag term: 0.0016368 1/REarth

Two-line elements (TLE)

Creation date: July 6, 2025, 6:05 p.m.

Reference frame: TEME

Reference center: EARTH

Epoch: July 6, 2025, 9:10 a.m. UTC

TLE line 0: 0 COSMOS 2251 DEB

TLE line 1: 1 36557U 93036BDT 25187.38258278 .00010438 00000-0 16368-2 0 9995

TLE line 2: 2 36557 73.9824 78.7239 0025031 257.4132 102.4241 14.72542739315470

Live tracking on map

Real-time ground track for satellite COSMOS 2251 DEB.

In-orbit conjunctions

A list of the most updated potential collisions computed for object COSMOS 2251 DEB.

Target Orbit TCA Probability of collision Miss distance Type
UWE-1 SSO 2025-02-15 22:29:55 0.0001523724 645.0 (m) PAYLOAD
TRIAD 1 LEO 2024-08-01 06:08:34 0.0001210388 610.0 (m) PAYLOAD

Associated space launch

Military communications satellite. Destroyed in a collision with Iridium 33.

COSMOS 2251 DEB was lifted into orbit during the mission ‘Kosmos-3M | Strela-2M 51’, on board a Kosmos-3M space rocket.

The launch took place on June 16, 1993, 4:17 a.m. from 132/1 (132L).

For more information about the launch, click the button.

Launch to space Kosmos-3M | Strela-2M 51
Kosmos-3M | Strela-2M 51

Agency: N/A

Status: Launch Successful

Launch date: June 16, 1993, 4:17 a.m. UTC

Rocket: Kosmos-3M

Launch pad: 132/1 (132L)

Location: Plesetsk Cosmodrome, Russian Federation

...

Latest news about this satellite

There are no fresh news available about this satellite. Check back as we update our databases every day.


Newsletter sign-up

Weekly statistics, charts and insights to help you stay on top of the space industry.